SAS249 EKYT-EKCH

Flight info

Callsign SAS249
Flight time 0h 27m
Altitude 19000
Route AAL M725 ADSEN DCT TNO
Aircraft A319/M-SDE3FGHIRWY/LB1

Departure

Time 2026-04-26 11:38
Airport Aalborg Airport (EKYT)

Arrival

Time 2026-04-26 12:05
Airport Copenhagen Kastrup Airport (EKCH)
Time Latitude Longitude Altitude Speed Heading
2026-04-26 11:22 57.08615 9.87098 19 ft 0 kts 55°
2026-04-26 11:30 57.08606 9.87076 21 ft 4 kts 44°
2026-04-26 11:30 57.08584 9.87051 19 ft 4 kts
2026-04-26 11:31 57.08559 9.87060 22 ft 4 kts 323°
2026-04-26 11:31 57.08552 9.87069 21 ft 0 kts 315°
2026-04-26 11:33 57.08559 9.87056 23 ft 4 kts 315°
2026-04-26 11:33 57.08592 9.86995 19 ft 10 kts 315°
2026-04-26 11:33 57.08654 9.86882 19 ft 16 kts 317°
2026-04-26 11:34 57.08751 9.86728 19 ft 16 kts 321°
2026-04-26 11:34 57.08849 9.86585 19 ft 21 kts 321°
2026-04-26 11:34 57.08985 9.86387 19 ft 28 kts 322°
2026-04-26 11:34 57.09126 9.86192 19 ft 27 kts 322°
2026-04-26 11:35 57.09250 9.86019 19 ft 16 kts 323°
2026-04-26 11:35 57.09308 9.85941 19 ft 10 kts 329°
2026-04-26 11:35 57.09355 9.86058 19 ft 17 kts 84°
2026-04-26 11:35 57.09371 9.86294 19 ft 20 kts 83°
2026-04-26 11:36 57.09389 9.86568 19 ft 23 kts 83°
2026-04-26 11:36 57.09409 9.86879 19 ft 26 kts 83°
2026-04-26 11:36 57.09430 9.87206 20 ft 21 kts 84°
2026-04-26 11:36 57.09446 9.87469 20 ft 22 kts 83°
2026-04-26 11:37 57.09463 9.87668 19 ft 15 kts 65°
2026-04-26 11:37 57.09563 9.87736 19 ft 18 kts 351°
2026-04-26 11:37 57.09647 9.87606 21 ft 10 kts 283°
2026-04-26 11:37 57.09640 9.87469 19 ft 22 kts 263°
2026-04-26 11:38 57.09596 9.86793 19 ft 85 kts 263°
2026-04-26 11:38 57.09504 9.85354 19 ft 141 kts 263°
2026-04-26 11:38 57.09374 9.83383 389 ft 161 kts 263°
2026-04-26 11:38 57.09248 9.81300 1125 ft 167 kts 264°
2026-04-26 11:39 57.09119 9.79115 1750 ft 181 kts 263°
2026-04-26 11:39 57.08939 9.76666 2128 ft 212 kts 259°
2026-04-26 11:39 57.08128 9.74117 2285 ft 256 kts 219°
2026-04-26 11:39 57.06472 9.72885 3521 ft 258 kts 191°
2026-04-26 11:40 57.04677 9.72888 4809 ft 262 kts 168°
2026-04-26 11:40 57.03013 9.74324 5928 ft 270 kts 144°
2026-04-26 11:40 57.01476 9.76390 6984 ft 277 kts 144°
2026-04-26 11:40 56.99899 9.78517 7907 ft 286 kts 143°
2026-04-26 11:41 56.98284 9.80766 8816 ft 296 kts 142°
2026-04-26 11:42 56.84978 9.99457 13506 ft 382 kts 143°
2026-04-26 11:43 56.82850 10.02420 14256 ft 387 kts 143°
2026-04-26 11:43 56.80691 10.05417 14934 ft 392 kts 143°
2026-04-26 11:43 56.78507 10.08443 15613 ft 396 kts 143°
2026-04-26 11:43 56.76294 10.11505 16297 ft 401 kts 144°
2026-04-26 11:44 56.74058 10.14596 16973 ft 406 kts 144°
2026-04-26 11:44 56.71796 10.17720 17642 ft 410 kts 144°
2026-04-26 11:44 56.69505 10.20880 18308 ft 415 kts 144°
2026-04-26 11:44 56.67189 10.24076 18927 ft 420 kts 144°
2026-04-26 11:45 56.64880 10.27256 19215 ft 422 kts 144°
2026-04-26 11:45 56.62527 10.30478 19300 ft 428 kts 144°
2026-04-26 11:45 56.60126 10.33757 19316 ft 433 kts 144°
2026-04-26 11:45 56.57717 10.37049 19321 ft 434 kts 144°
2026-04-26 11:46 56.55304 10.40345 19320 ft 434 kts 144°
2026-04-26 11:46 56.52887 10.43637 19320 ft 435 kts 144°
2026-04-26 11:46 56.50464 10.46929 19323 ft 435 kts 144°
2026-04-26 11:46 56.48045 10.50213 19324 ft 435 kts 144°
2026-04-26 11:47 56.45629 10.53493 19328 ft 435 kts 144°
2026-04-26 11:47 56.43210 10.56777 19329 ft 435 kts 144°
2026-04-26 11:47 56.40784 10.60066 19328 ft 435 kts 144°
2026-04-26 11:47 56.38362 10.63342 19329 ft 435 kts 144°
2026-04-26 11:48 56.35993 10.66538 19141 ft 426 kts 144°
2026-04-26 11:48 56.33637 10.69707 18900 ft 421 kts 144°
2026-04-26 11:48 56.31296 10.72846 18667 ft 419 kts 145°
2026-04-26 11:48 56.28959 10.75978 18404 ft 417 kts 144°
2026-04-26 11:49 56.26636 10.79092 18130 ft 415 kts 144°
2026-04-26 11:49 56.24326 10.82184 17864 ft 414 kts 144°
2026-04-26 11:49 56.22023 10.85262 17597 ft 412 kts 144°
2026-04-26 11:49 56.19726 10.88330 17332 ft 410 kts 144°
2026-04-26 11:50 56.17441 10.91373 17076 ft 408 kts 144°
2026-04-26 11:50 56.15164 10.94395 16817 ft 406 kts 144°
2026-04-26 11:50 56.12894 10.97402 16559 ft 404 kts 144°
2026-04-26 11:50 56.10639 11.00390 16303 ft 403 kts 144°
2026-04-26 11:51 56.08389 11.03370 16055 ft 401 kts 144°
2026-04-26 11:51 56.06159 11.06355 15809 ft 400 kts 141°
2026-04-26 11:51 56.04237 11.09918 15560 ft 398 kts 129°
2026-04-26 11:51 56.02457 11.13689 15314 ft 396 kts 129°
2026-04-26 11:52 56.00690 11.17456 15076 ft 394 kts 128°
2026-04-26 11:52 55.99523 11.19945 14911 ft 393 kts 128°
2026-04-26 11:52 55.97178 11.24947 14592 ft 391 kts 128°
2026-04-26 11:52 55.95434 11.28661 14354 ft 390 kts 128°
2026-04-26 11:53 55.93717 11.32303 14117 ft 388 kts 128°
2026-04-26 11:53 55.91978 11.35976 13856 ft 386 kts 129°
2026-04-26 11:53 55.90246 11.39625 13582 ft 385 kts 129°
2026-04-26 11:54 55.86807 11.46864 13056 ft 381 kts 129°
2026-04-26 11:54 55.85095 11.50463 12792 ft 379 kts 129°
2026-04-26 11:54 55.83394 11.54031 12536 ft 377 kts 129°
2026-04-26 11:54 55.81702 11.57581 12281 ft 375 kts 129°
2026-04-26 11:55 55.80021 11.61106 12020 ft 373 kts 129°
2026-04-26 11:55 55.78344 11.64614 11770 ft 371 kts 129°
2026-04-26 11:55 55.76676 11.68094 11518 ft 369 kts 129°
2026-04-26 11:55 55.75013 11.71551 11270 ft 367 kts 129°
2026-04-26 11:56 55.73357 11.74991 11024 ft 365 kts 129°
2026-04-26 11:56 55.71717 11.78399 10724 ft 361 kts 129°
2026-04-26 11:56 55.70106 11.81745 10430 ft 347 kts 129°
2026-04-26 11:56 55.68587 11.84890 10281 ft 326 kts 129°
2026-04-26 11:57 55.67131 11.87895 9893 ft 319 kts 129°
2026-04-26 11:57 55.65703 11.90846 9759 ft 313 kts 129°
2026-04-26 11:57 55.64292 11.93767 9621 ft 311 kts 129°
2026-04-26 11:57 55.62908 11.96630 9376 ft 310 kts 129°
2026-04-26 11:58 55.61501 11.99528 8995 ft 309 kts 129°
2026-04-26 11:58 55.60327 12.02623 8729 ft 300 kts 113°
2026-04-26 11:58 55.59491 12.05979 8396 ft 296 kts 110°
2026-04-26 11:58 55.58696 12.09321 8071 ft 294 kts 110°
2026-04-26 11:59 55.57918 12.12643 7652 ft 291 kts 110°
2026-04-26 11:59 55.57156 12.15933 7241 ft 287 kts 110°
2026-04-26 11:59 55.56411 12.19190 6845 ft 284 kts 110°
2026-04-26 11:59 55.55679 12.22404 6421 ft 281 kts 110°
2026-04-26 12:00 55.54956 12.25603 6022 ft 279 kts 110°
2026-04-26 12:00 55.54245 12.28775 5651 ft 275 kts 110°
2026-04-26 12:00 55.53557 12.31859 5285 ft 266 kts 109°
2026-04-26 12:00 55.53060 12.34943 4871 ft 258 kts 102°
2026-04-26 12:01 55.52651 12.37994 4462 ft 253 kts 101°
2026-04-26 12:01 55.52261 12.40975 4038 ft 243 kts 101°
2026-04-26 12:01 55.51905 12.43786 3608 ft 227 kts 97°
2026-04-26 12:01 55.51912 12.46454 3163 ft 210 kts 75°
2026-04-26 12:02 55.52387 12.48740 2842 ft 192 kts 59°
2026-04-26 12:02 55.52824 12.50060 2671 ft 178 kts 50°
2026-04-26 12:02 55.53850 12.52117 2195 ft 161 kts 41°
2026-04-26 12:02 55.54629 12.53453 1798 ft 155 kts 36°
2026-04-26 12:03 55.55441 12.54702 1417 ft 154 kts 36°
2026-04-26 12:03 55.56263 12.55898 1053 ft 151 kts 33°
2026-04-26 12:03 55.57063 12.57057 777 ft 145 kts 36°
2026-04-26 12:03 55.57819 12.58180 486 ft 139 kts 37°
2026-04-26 12:04 55.58527 12.59278 254 ft 132 kts 38°
2026-04-26 12:04 55.59200 12.60314 83 ft 126 kts 40°
2026-04-26 12:04 55.59826 12.61283 22 ft 107 kts 41°
2026-04-26 12:04 55.60363 12.62121 18 ft 102 kts 40°
2026-04-26 12:05 55.60813 12.62816 18 ft 64 kts 41°
2026-04-26 12:05 55.61130 12.63311 21 ft 64 kts 41°
2026-04-26 12:05 55.61386 12.63703 18 ft 50 kts 40°
2026-04-26 12:05 55.61559 12.63946 19 ft 24 kts 18°
2026-04-26 12:06 55.61727 12.63942 17 ft 24 kts 356°
2026-04-26 12:06 55.61864 12.64054 18 ft 20 kts 33°
2026-04-26 12:06 55.62000 12.64181 17 ft 25 kts 25°
2026-04-26 12:06 55.62136 12.64295 17 ft 15 kts 25°
2026-04-26 12:07 55.62242 12.64401 16 ft 20 kts 50°
2026-04-26 12:07 55.62302 12.64612 17 ft 20 kts 57°
2026-04-26 12:07 55.62373 12.64678 17 ft 11 kts
2026-04-26 12:07 55.62468 12.64665 19 ft 16 kts 352°
2026-04-26 12:08 55.62591 12.64653 17 ft 16 kts
2026-04-26 12:08 55.62650 12.64670 17 ft 8 kts 12°
2026-04-26 12:08 55.62678 12.64670 17 ft 5 kts 335°
2026-04-26 12:08 55.62693 12.64613 17 ft 2 kts 282°
2026-04-26 12:09 55.62696 12.64585 17 ft 2 kts 280°
2026-04-26 12:09 55.62697 12.64574 17 ft 0 kts 280°